Showing default

QIANFAN-129, 69075

Orbit data source: Space-Track

QIANFAN-129, 69075 is a Chinese payload satellite in LEO that was launched on Tue, 12 May 2026 UTC via a CHANG ZHENG 6A launch vehicle from the Taiyaun Space Center, China (TSC). Payload-class satellites include a variety of spacecraft equipped with specific instruments for various scientific and technological missions. These include communications satellites like Starlink; space stations such as the ISS; scientific satellites like the Hubble; Earth observation satellites from companies like Planet Labs, Umbra, and HawkEye 360; GPS; miniature CubeSats for education and research; and military/defense satellites.

Loading next visibility...
Identifier
69075, 2026-104C
Orbit
LEO
Country
Flag of CNCN / PRC
Related business
Manufacturer
SECM
Mission
Operational spacecraft
Bus & Motor
QIANFAN, Unknown motor
Mass
267 kg wet, ~267 kg dry
Launch date (UTC)
2026-05-12 (4 weeks ago)
Launch vehicle
CHANG ZHENG 6A
Launch site
Taiyaun Space Center, China (TSC)
Object type
Payload
Rocket body
Debris
Shape & HBR
Unknown
Radar Cross Section
Large (>1 m²)

Expand to show TLE details & history
Last TLE update: 2 days ago

TLE from 2 days ago
0 QIANFAN-129
1 69075U 26104C   26155.27921988  .00000134  00000-0  50726-4 0  9997
2 69075  88.9863 343.0702 0004794 147.0030 213.1464 14.25500113  3263
Epoch: 2026-06-04T06:42Z
TLE epoch observation values (Epoch: 2026-06-04T06:42:04.597Z)
Latitude
0.00006°
Longitude
-10.17472°
Altitude
812.758 km
Speed
7.445 km/s
True Right ascension
22h 52m 16s
True Declination
0° 00' 00"
Sunlit
Object was in daylight at epoch
Visualization orbit readout
Latitude
Unknown
Longitude
Unknown
Altitude
Unknown
Speed
Unknown
Apparent Right ascension
Unknown
Apparent Declination
Unknown
Sunlit
N/A
Visualization observer readout
Local Sidereal Time
02:48:14
Azimuth
Unknown
Elevation
Unknown
Doppler factor
Unknown
Orbital elements
Apogee altitude
807.198 km
Perigee altitude
800.312 km
Semi-major axis
7,181.892 km
Eccentricity
0.00048
Inclination
88.9863°
RAAN
343.0702°
Arg. of periapsis
147.003°
True anomaly
213.11638°
Mean anomaly
213.1464°
Eccentric anomaly
213.13139°
Mean motion
3.56603 °/min
Orbital period
100.95 mins
BSTAR
0.000050726
Loading maneuver chart data...
Computing Atmospheric mass density...
Loading historical data...
Loading historical data...
Loading historical data...
Loading historical data...
Loading historical data...
Loading historical data...
Loading historical data...

Documentation

Showing up to 5 results
|